This is the latest recevied weather packets stored in our database for station/object DC4AT. If no packets are shown the sender has not sent any weather packets the latest 10 day(s).
| Time | Temp. | Humidity | Pressure | Rain* | Wind** | Luminosity | Snow |
|---|---|---|---|---|---|---|---|
| 1777983213 | 17.22° C | 75% | 1008.5 hPa | 0 mm | - | 476 W/m² | - |
| 1777982613 | 17.22° C | 76% | 1008.6 hPa | 0 mm | - | 313 W/m² | - |
| 1777982013 | 17.22° C | 77% | 1008.7 hPa | 0 mm | - | 308 W/m² | - |
| 1777981413 | 17.22° C | 77% | 1008.6 hPa | 0 mm | - | 624 W/m² | - |
| 1777980813 | 17.22° C | 80% | 1008.8 hPa | 0 mm | - | 413 W/m² | - |
| 1777980213 | 16.67° C | 78% | 1008.9 hPa | 0 mm | - | 350 W/m² | - |
| 1777979613 | 16.67° C | 78% | 1008.9 hPa | 0 mm | - | 390 W/m² | - |
| 1777979013 | 16.67° C | 80% | 1009 hPa | 0 mm | - | 413 W/m² | - |
| 1777978413 | 16.11° C | 80% | 1009.1 hPa | 0 mm | - | 429 W/m² | - |
| 1777977813 | 16.11° C | 81% | 1009.2 hPa | 0 mm | - | 457 W/m² | - |
| 1777977213 | 15.56° C | 84% | 1009.3 hPa | 0 mm | - | 487 W/m² | - |
| 1777976613 | 15.56° C | 85% | 1009.5 hPa | 0 mm | - | 413 W/m² | - |
| 1777976013 | 15.56° C | 85% | 1009.5 hPa | 0 mm | - | 308 W/m² | - |
| 1777975414 | 15° C | 85% | 1009.6 hPa | 0 mm | - | 271 W/m² | - |
| 1777974814 | 15° C | 84% | 1009.6 hPa | 0 mm | - | 258 W/m² | - |
| 1777974214 | 14.44° C | 83% | 1009.5 hPa | 0 mm | - | 216 W/m² | - |
| 1777973613 | 14.44° C | 82% | 1009.6 hPa | 0 mm | - | 236 W/m² | - |
| 1777973014 | 14.44° C | 81% | 1009.7 hPa | 0 mm | - | 234 W/m² | - |
| 1777972414 | 14.44° C | 80% | 1009.7 hPa | 0 mm | - | 214 W/m² | - |
| 1777971814 | 13.89° C | 79% | 1009.7 hPa | 0 mm | - | 230 W/m² | - |
| 1777971214 | 13.89° C | 79% | 1009.7 hPa | 0 mm | - | 195 W/m² | - |
| 1777970614 | 13.89° C | 79% | 1009.7 hPa | 0 mm | - | 142 W/m² | - |
| 1777970014 | 13.89° C | 78% | 1009.6 hPa | 0 mm | - | 156 W/m² | - |
| 1777969414 | 13.33° C | 79% | 1009.6 hPa | 0 mm | - | 118 W/m² | - |
| 1777968814 | 13.33° C | 79% | 1009.7 hPa | 0 mm | - | 116 W/m² | - |
* Rain latest hour (hover to see other rain measurements)
** Current wind speed in m/s (hover to see current wind gust speed)